| time (UTC) | temp F | wind direction | speed MPH | gust MPH | rain 1hr in | rain 24hr in | rain mn in | humidity % | barometer mb |
| 20260504081017 | 50 | 248 | 1.0 | 6.0 | 0.00 | 0.00 | 0.00 | 60 | 995.5 |
| 20260504060138 | 45 | 0.0 | 0.0 | 0.00 | 0.00 | 0.00 | 86 | 997.5 | |
| 20260504050017 | 46 | 0.0 | 0.0 | 0.00 | 0.00 | 0.00 | 80 | 998.8 | |
| 20260504045017 | 47 | 0.0 | 0.0 | 0.00 | 0.00 | 0.00 | 78 | 999.1 | |
| 20260504044016 | 47 | 0.0 | 0.0 | 0.00 | 0.00 | 0.00 | 77 | 999.3 | |
| 20260504043037 | 47 | 0.0 | 0.0 | 0.00 | 0.00 | 0.00 | 75 | 999.3 | |
| 20260504042036 | 48 | 0.0 | 0.0 | 0.00 | 0.00 | 0.00 | 74 | 999.5 | |
| 20260504041037 | 49 | 0.0 | 0.0 | 0.00 | 0.00 | 0.00 | 72 | 999.8 | |
| 20260504040017 | 49 | 0.0 | 0.0 | 0.00 | 0.00 | 0.00 | 70 | 999.9 | |
| 20260504035037 | 50 | 0.0 | 0.0 | 0.00 | 0.00 | 0.00 | 69 | 1000.2 | |
| 20260504034016 | 50 | 0.0 | 0.0 | 0.00 | 0.00 | 0.00 | 67 | 1000.4 | |
| 20260504033038 | 51 | 0.0 | 0.0 | 0.00 | 0.00 | 0.00 | 66 | 1000.4 | |
| 20260504032016 | 52 | 0.0 | 0.0 | 0.00 | 0.00 | 0.00 | 66 | 1000.6 | |
| 20260504031016 | 53 | 0.0 | 0.0 | 0.00 | 0.00 | 0.00 | 63 | 1000.7 | |
| 20260504030016 | 54 | 0.0 | 0.0 | 0.00 | 0.00 | 0.00 | 61 | 1000.7 | |
| 20260504025017 | 55 | 0.0 | 0.0 | 0.00 | 0.00 | 0.00 | 58 | 1000.7 | |
| 20260504024017 | 56 | 0.0 | 0.0 | 0.00 | 0.00 | 0.00 | 56 | 1000.8 | |
| 20260504023017 | 57 | 0.0 | 0.0 | 0.00 | 0.00 | 0.00 | 55 | 1000.8 | |
| 20260504022016 | 57 | 0.0 | 0.0 | 0.00 | 0.00 | 0.00 | 52 | 1000.9 | |
| 20260504021022 | 58 | 0.0 | 0.0 | 0.00 | 0.00 | 0.00 | 50 | 1001.0 | |
| 20260504020027 | 59 | 0.0 | 0.0 | 0.00 | 0.00 | 0.00 | 50 | 1001.0 | |
| 20260504015016 | 60 | 0.0 | 0.0 | 0.00 | 0.00 | 0.00 | 48 | 1001.0 | |
| 20260504014016 | 61 | 0.0 | 0.0 | 0.00 | 0.00 | 0.00 | 47 | 1001.1 | |
| 20260504013016 | 62 | 0.0 | 0.0 | 0.00 | 0.00 | 0.00 | 46 | 1001.1 | |
| 20260504012037 | 63 | 0.0 | 3.0 | 0.00 | 0.00 | 0.00 | 46 | 1001.2 | |
| 20260504011016 | 64 | 0.0 | 5.0 | 0.00 | 0.00 | 0.00 | 45 | 1001.2 | |
| 20260504010016 | 64 | 293 | 1.0 | 8.0 | 0.00 | 0.00 | 0.00 | 42 | 1001.2 |
| 20260504005016 | 65 | 0.0 | 3.0 | 0.00 | 0.00 | 0.00 | 39 | 1001.2 | |
| 20260504004036 | 65 | 0.0 | 1.0 | 0.00 | 0.00 | 0.00 | 40 | 1001.1 | |
| 20260504003016 | 66 | 315 | 1.0 | 6.0 | 0.00 | 0.00 | 0.00 | 36 | 1001.1 |
| 20260504002016 | 66 | 0.0 | 3.0 | 0.00 | 0.00 | 0.00 | 37 | 1001.2 | |
| 20260504001037 | 66 | 0.0 | 0.0 | 0.00 | 0.00 | 0.00 | 38 | 1001.4 | |
| 20260504000016 | 67 | 248 | 1.0 | 7.0 | 0.00 | 0.00 | 0.00 | 32 | 1001.4 |
| 20260503235016 | 67 | 270 | 1.0 | 6.0 | 0.00 | 0.00 | 0.00 | 34 | 1001.7 |
| 20260503234016 | 68 | 270 | 2.0 | 8.0 | 0.00 | 0.00 | 0.00 | 36 | 1001.5 |
| 20260503233016 | 68 | 338 | 1.0 | 4.0 | 0.00 | 0.00 | 0.00 | 36 | 1001.5 |
| 20260503232016 | 68 | 0.0 | 1.0 | 0.00 | 0.00 | 0.00 | 34 | 1001.8 | |
| 20260503231016 | 69 | 0.0 | 3.0 | 0.00 | 0.00 | 0.00 | 32 | 1001.9 | |
| 20260503230016 | 69 | 293 | 1.0 | 7.0 | 0.00 | 0.00 | 0.00 | 31 | 1001.9 |
| 20260503225016 | 69 | 0.0 | 5.0 | 0.00 | 0.00 | 0.00 | 33 | 1002.1 | |
| 20260503224016 | 69 | 0.0 | 3.0 | 0.00 | 0.00 | 0.00 | 35 | 1002.3 | |
| 20260503223036 | 69 | 248 | 1.0 | 7.0 | 0.00 | 0.00 | 0.00 | 29 | 1002.3 |
| 20260503222016 | 69 | 23 | 1.0 | 6.0 | 0.00 | 0.00 | 0.00 | 29 | 1002.3 |
| 20260503221016 | 69 | 0.0 | 7.0 | 0.00 | 0.00 | 0.00 | 32 | 1002.4 | |
| 20260503220016 | 69 | 248 | 2.0 | 11.0 | 0.00 | 0.00 | 0.00 | 29 | 1002.4 |
| 20260503215016 | 70 | 270 | 1.0 | 10.0 | 0.00 | 0.00 | 0.00 | 31 | 1002.3 |
| 20260503214016 | 70 | 270 | 2.0 | 8.0 | 0.00 | 0.00 | 0.00 | 29 | 1002.4 |
| 20260503213016 | 70 | 0.0 | 3.0 | 0.00 | 0.00 | 0.00 | 30 | 1002.4 | |
| 20260503212016 | 69 | 225 | 1.0 | 4.0 | 0.00 | 0.00 | 0.00 | 33 | 1002.6 |
| 20260503211056 | 69 | 293 | 1.0 | 8.0 | 0.00 | 0.00 | 0.00 | 29 | 1002.7 |
| 20260503210016 | 69 | 0 | 1.0 | 7.0 | 0.00 | 0.00 | 0.00 | 31 | 1002.7 |
| 20260503205056 | 69 | 293 | 1.0 | 5.0 | 0.00 | 0.00 | 0.00 | 32 | 1002.8 |
| 20260503204036 | 69 | 45 | 1.0 | 2.0 | 0.00 | 0.00 | 0.00 | 35 | 1003.0 |
| 20260503203016 | 69 | 270 | 1.0 | 7.0 | 0.00 | 0.00 | 0.00 | 31 | 1002.9 |
| 20260503202016 | 69 | 248 | 2.0 | 10.0 | 0.00 | 0.00 | 0.00 | 30 | 1003.1 |
| 20260503201016 | 69 | 248 | 1.0 | 7.0 | 0.00 | 0.00 | 0.00 | 37 | 1003.3 |
| 20260503200036 | 69 | 293 | 1.0 | 6.0 | 0.00 | 0.00 | 0.00 | 36 | 1003.3 |
| 20260503195016 | 70 | 0.0 | 5.0 | 0.00 | 0.00 | 0.00 | 34 | 1003.3 | |
| 20260503194016 | 70 | 315 | 2.0 | 8.0 | 0.00 | 0.00 | 0.00 | 36 | 1003.5 |
| 20260503193056 | 70 | 293 | 4.0 | 11.0 | 0.00 | 0.00 | 0.00 | 38 | 1003.5 |
| 20260503192016 | 70 | 293 | 2.0 | 11.0 | 0.00 | 0.00 | 0.00 | 33 | 1003.5 |
| 20260503191016 | 71 | 45 | 1.0 | 10.0 | 0.00 | 0.00 | 0.00 | 36 | 1003.6 |
| 20260503190018 | 70 | 0 | 1.0 | 7.0 | 0.00 | 0.00 | 0.00 | 33 | 1003.6 |
| 20260503185019 | 70 | 45 | 2.0 | 12.0 | 0.00 | 0.00 | 0.00 | 31 | 1003.6 |
| 20260503184018 | 70 | 270 | 1.0 | 7.0 | 0.00 | 0.00 | 0.00 | 37 | 1003.8 |
| 20260503183017 | 71 | 45 | 1.0 | 4.0 | 0.00 | 0.00 | 0.00 | 40 | 1003.8 |
| 20260503182017 | 71 | 270 | 2.0 | 12.0 | 0.00 | 0.00 | 0.00 | 37 | 1003.8 |
| 20260503181017 | 70 | 68 | 1.0 | 6.0 | 0.00 | 0.00 | 0.00 | 42 | 1003.9 |
| 20260503180017 | 70 | 293 | 3.0 | 12.0 | 0.00 | 0.00 | 0.00 | 39 | 1003.9 |
| 20260503175018 | 70 | 293 | 2.0 | 11.0 | 0.00 | 0.00 | 0.00 | 41 | 1004.1 |
| 20260503174017 | 70 | 293 | 3.0 | 14.0 | 0.00 | 0.00 | 0.00 | 38 | 1004.1 |
| 20260503173017 | 70 | 338 | 3.0 | 14.0 | 0.00 | 0.00 | 0.00 | 40 | 1004.1 |
| 20260503172017 | 70 | 0 | 2.0 | 8.0 | 0.00 | 0.00 | 0.00 | 41 | 1004.2 |
| 20260503171038 | 70 | 0 | 1.0 | 6.0 | 0.00 | 0.00 | 0.00 | 41 | 1004.3 |
| 20260503131017 | 59 | 0 | 1.0 | 8.0 | 0.00 | 0.00 | 0.00 | 58 | 1002.9 |